"Datum/tijd (MEZT)";"verwachting, vectrale stroom cm/s";"debiet verwachting rws (m3/s)"
2024-05-05 13:00;36;578.8
2024-05-05 13:10;22;363.8
2024-05-05 13:20;9;155.2
2024-05-05 13:30;-3;-57.6
2024-05-05 13:40;-17;-273.8
2024-05-05 13:50;-30;-504.9
2024-05-05 14:00;-44;-732.4
2024-05-05 14:10;-57;-972.5
2024-05-05 14:20;-70;-1193.7
2024-05-05 14:30;-80;-1374.8
2024-05-05 14:40;-88;-1506.1
2024-05-05 14:50;-93;-1587.2
2024-05-05 15:00;-95;-1636.8
2024-05-05 15:10;-96;-1647.5
2024-05-05 15:20;-96;-1636.9
2024-05-05 15:30;-94;-1612.9
2024-05-05 15:40;-93;-1580.9
2024-05-05 15:50;-91;-1543
2024-05-05 16:00;-88;-1500.5
2024-05-05 16:10;-86;-1451.9
2024-05-05 16:20;-83;-1397
2024-05-05 16:30;-79;-1336.6
2024-05-05 16:40;-75;-1269
2024-05-05 16:50;-71;-1192.4
2024-05-05 17:00;-66;-1103.2
2024-05-05 17:10;-60;-997.8
2024-05-05 17:20;-53;-873.3
2024-05-05 17:30;-44;-730.7
2024-05-05 17:40;-35;-565.5
2024-05-05 17:50;-24;-384.5
2024-05-05 18:00;-13;-203.1
2024-05-05 18:10;-2;-34.2
2024-05-05 18:20;7;120.9
2024-05-05 18:30;16;258.9
2024-05-05 18:40;23;380.7
2024-05-05 18:50;30;492.9
2024-05-05 19:00;37;603.4
2024-05-05 19:10;45;718.6
2024-05-05 19:20;52;836.8
2024-05-05 19:30;59;949.7
2024-05-05 19:40;65;1048.7
2024-05-05 19:50;71;1130.7
2024-05-05 20:00;74;1190.3
2024-05-05 20:10;78;1244.3
2024-05-05 20:20;81;1285.8
2024-05-05 20:30;83;1316
2024-05-05 20:40;84;1336.5
2024-05-05 20:50;85;1348.9
2024-05-05 21:00;85;1355
2024-05-05 21:10;85;1356.6
2024-05-05 21:20;85;1355.5
2024-05-05 21:30;85;1353.1
2024-05-05 21:40;85;1350.5
2024-05-05 21:50;85;1348.1
2024-05-05 22:00;85;1345.9
2024-05-05 22:10;85;1343.8
2024-05-05 22:20;85;1341.6
2024-05-05 22:30;85;1339.1
2024-05-05 22:40;85;1336.3
2024-05-05 22:50;85;1333.5
2024-05-05 23:00;85;1330.7
2024-05-05 23:10;85;1328.1
2024-05-05 23:20;84;1325.4
2024-05-05 23:30;84;1322.5
2024-05-05 23:40;84;1318.9
2024-05-05 23:50;84;1314.1
2024-05-06 00:00;84;1307.3
2024-05-06 00:10;83;1297.8
2024-05-06 00:20;82;1284.8
2024-05-06 00:30;81;1267.6
2024-05-06 00:40;80;1245.1
2024-05-06 00:50;78;1216.5
2024-05-06 01:00;75;1180.3
2024-05-06 01:10;72;1134.3
2024-05-06 01:20;68;1076
2024-05-06 01:30;63;996
2024-05-06 01:40;55;882.2
2024-05-06 01:50;45;722.6
2024-05-06 02:00;31;512.8
2024-05-06 02:10;18;292.5
2024-05-06 02:20;4;75.3
2024-05-06 02:30;-8;-135.6
2024-05-06 02:40;-20;-339
2024-05-06 02:50;-32;-540.8
2024-05-06 03:00;-43;-735
2024-05-06 03:10;-54;-915.1
2024-05-06 03:20;-63;-1063.6
2024-05-06 03:30;-69;-1171.5
2024-05-06 03:40;-73;-1239.6
2024-05-06 03:50;-75;-1274.2
2024-05-06 04:00;-76;-1281.4
2024-05-06 04:10;-75;-1267.6
2024-05-06 04:20;-74;-1237
2024-05-06 04:30;-71;-1191.2
2024-05-06 04:40;-68;-1131.3
2024-05-06 04:50;-63;-1054.5
2024-05-06 05:00;-58;-958.5
2024-05-06 05:10;-51;-842.9
2024-05-06 05:20;-43;-712.3
2024-05-06 05:30;-35;-568.4
2024-05-06 05:40;-24;-393.8
2024-05-06 05:50;-13;-205
2024-05-06 06:00;-2;-25
2024-05-06 06:10;8;139.3
2024-05-06 06:20;17;285.2
2024-05-06 06:30;25;412.4
2024-05-06 06:40;33;528
2024-05-06 06:50;40;642.9
2024-05-06 07:00;48;765.9
2024-05-06 07:10;56;896
2024-05-06 07:20;64;1020.9
2024-05-06 07:30;71;1130.6
2024-05-06 07:40;77;1222.2
2024-05-06 07:50;82;1297.7
2024-05-06 08:00;87;1360.1
2024-05-06 08:10;90;1411.3
2024-05-06 08:20;93;1452
2024-05-06 08:30;95;1483.1
2024-05-06 08:40;97;1505.2
2024-05-06 08:50;98;1519.2
2024-05-06 09:00;99;1525.3
2024-05-06 09:10;99;1523.7
2024-05-06 09:20;98;1515
2024-05-06 09:30;97;1500.3
2024-05-06 09:40;96;1481.5
2024-05-06 09:50;94;1460.8
2024-05-06 10:00;94;1453.3
2024-05-06 10:10;93;1441.9
2024-05-06 10:20;93;1433.6
2024-05-06 10:30;92;1427.6
2024-05-06 10:40;92;1422.5
2024-05-06 10:50;92;1417.3
2024-05-06 11:00;92;1411
2024-05-06 11:10;91;1403.1
2024-05-06 11:20;91;1394
2024-05-06 11:30;90;1384.5
2024-05-06 11:40;90;1375
2024-05-06 11:50;89;1365.6
2024-05-06 12:00;89;1356.2
2024-05-06 12:10;88;1346.1
2024-05-06 12:20;88;1334.8
2024-05-06 12:30;87;1321
2024-05-06 12:40;86;1303.3
2024-05-06 12:50;84;1279.2
2024-05-06 13:00;82;1245.6
2024-05-06 13:10;78;1200.4
2024-05-06 13:20;74;1136
2024-05-06 13:30;67;1045.8
2024-05-06 13:40;59;919.7
2024-05-06 13:50;48;754.6
2024-05-06 14:00;31;506.5
2024-05-06 14:10;17;280
2024-05-06 14:20;3;54.3
2024-05-06 14:30;-11;-172.6
2024-05-06 14:40;-25;-408
2024-05-06 14:50;-39;-654.4
2024-05-06 15:00;-53;-903.4
2024-05-06 15:10;-67;-1144.3
2024-05-06 15:20;-79;-1352.7
2024-05-06 15:30;-88;-1510
2024-05-06 15:40;-94;-1613.4
2024-05-06 15:50;-97;-1669.1
2024-05-06 16:00;-98;-1686.7
2024-05-06 16:10;-98;-1677
2024-05-06 16:20;-96;-1651.7
2024-05-06 16:30;-95;-1619.8
2024-05-06 16:40;-93;-1585.9
2024-05-06 16:50;-91;-1551.1
2024-05-06 17:00;-89;-1515
2024-05-06 17:10;-87;-1472.9
2024-05-06 17:20;-84;-1422.8
2024-05-06 17:30;-80;-1362
2024-05-06 17:40;-76;-1289.1
2024-05-06 17:50;-71;-1202.1
2024-05-06 18:00;-65;-1097.4
2024-05-06 18:10;-58;-974.3
2024-05-06 18:20;-50;-830.3
2024-05-06 18:30;-40;-661.4
2024-05-06 18:40;-29;-473.3
2024-05-06 18:50;-17;-282.3
2024-05-06 19:00;-4;-56.1
2024-05-06 19:10;6;104.6
2024-05-06 19:20;15;246.5
2024-05-06 19:30;23;368.4
2024-05-06 19:40;29;477.4
2024-05-06 19:50;36;582.7
2024-05-06 20:00;43;691.4
2024-05-06 20:10;50;805.1
2024-05-06 20:20;57;916.9
2024-05-06 20:30;64;1016.4
2024-05-06 20:40;69;1098.2
2024-05-06 20:50;73;1161.6
2024-05-06 21:00;76;1208.8
2024-05-06 21:10;78;1242
2024-05-06 21:20;79;1261.7
2024-05-06 21:30;80;1271.4
2024-05-06 21:40;80;1273.6
2024-05-06 21:50;80;1270.9
2024-05-06 22:00;79;1265.1
2024-05-06 22:10;79;1258.4
2024-05-06 22:20;78;1252.1
2024-05-06 22:30;78;1246.4
2024-05-06 22:40;78;1241
2024-05-06 22:50;78;1235.8
2024-05-06 23:00;77;1229.9
2024-05-06 23:10;77;1223.5
2024-05-06 23:20;77;1216.8
2024-05-06 23:30;76;1210.1
2024-05-06 23:40;76;1203.8
2024-05-06 23:50;76;1198.2
2024-05-07 00:00;76;1193.2
2024-05-07 00:10;75;1188.9
2024-05-07 00:20;75;1184.9
2024-05-07 00:30;75;1180.8
2024-05-07 00:40;75;1175.8
2024-05-07 00:50;74;1168.9
2024-05-07 01:00;71;1117.7
2024-05-07 01:10;70;1105.6
2024-05-07 01:20;69;1089
2024-05-07 01:30;68;1067.4
2024-05-07 01:40;66;1040
2024-05-07 01:50;63;1005.4
2024-05-07 02:00;61;961.3
2024-05-07 02:10;57;905.1
2024-05-07 02:20;52;828.2
2024-05-07 02:30;45;718.2
2024-05-07 02:40;34;561.5
2024-05-07 02:50;22;354.7
2024-05-07 03:00;7;119.1
2024-05-07 03:10;-7;-116.2
2024-05-07 03:20;-20;-340.9
2024-05-07 03:30;-33;-563.6
2024-05-07 03:40;-46;-782.4
2024-05-07 03:50;-58;-989.1
2024-05-07 04:00;-68;-1167.9
2024-05-07 04:10;-76;-1304.5
2024-05-07 04:20;-81;-1396.6
2024-05-07 04:30;-85;-1449.4
2024-05-07 04:40;-86;-1470.2
2024-05-07 04:50;-86;-1465.7
2024-05-07 05:00;-85;-1443.2
2024-05-07 05:10;-83;-1409.2
2024-05-07 05:20;-81;-1364.4
2024-05-07 05:30;-77;-1307.4
2024-05-07 05:40;-73;-1235.9
2024-05-07 05:50;-68;-1145.8
2024-05-07 06:00;-62;-1034.6
2024-05-07 06:10;-54;-903.7
2024-05-07 06:20;-46;-759.4
2024-05-07 06:30;-36;-589.4
2024-05-07 06:40;-24;-389.2
2024-05-07 06:50;-11;-183.6
2024-05-07 07:00;0;4.8
2024-05-07 07:10;11;176.1
2024-05-07 07:20;20;325.2
2024-05-07 07:30;28;455
2024-05-07 07:40;36;575.4
2024-05-07 07:50;44;698.5
2024-05-07 08:00;52;831.4
2024-05-07 08:10;61;968.8
2024-05-07 08:20;69;1095.8
2024-05-07 08:30;76;1203.6
2024-05-07 08:40;82;1291
2024-05-07 08:50;86;1361
2024-05-07 09:00;90;1417.4
2024-05-07 09:10;93;1461.5
2024-05-07 09:20;96;1494.1
2024-05-07 09:30;97;1516.4
2024-05-07 09:40;98;1528.9
2024-05-07 09:50;99;1532.8
2024-05-07 10:00;98;1528.5
2024-05-07 10:10;98;1517.1
2024-05-07 10:20;97;1500.6
2024-05-07 10:30;95;1481.2
2024-05-07 10:40;94;1461.9
2024-05-07 10:50;93;1444.9
2024-05-07 11:00;92;1431
2024-05-07 11:10;91;1420.2
2024-05-07 11:20;91;1411.9
2024-05-07 11:30;90;1405.1
2024-05-07 11:40;90;1399.1
2024-05-07 11:50;90;1392.9
2024-05-07 12:00;89;1385.6
2024-05-07 12:10;89;1376.9
2024-05-07 12:20;89;1367.2
2024-05-07 12:30;88;1356.9
2024-05-07 12:40;87;1346.8
2024-05-07 12:50;87;1337.1
2024-05-07 13:00;86;1328.1
2024-05-07 13:10;86;1319.1
2024-05-07 13:20;85;1309.3
2024-05-07 13:30;85;1297.3
2024-05-07 13:40;84;1281.5
2024-05-07 13:50;82;1259.7
2024-05-07 14:00;80;1228.9
2024-05-07 14:10;77;1187.3
2024-05-07 14:20;73;1128.1
2024-05-07 14:30;67;1044.5
2024-05-07 14:40;59;923.9
2024-05-07 14:50;48;756.9
2024-05-07 15:00;34;541.7
2024-05-07 15:10;18;300.8
2024-05-07 15:20;5;76.3
2024-05-07 15:30;-9;-144.9
2024-05-07 15:40;-23;-378.6
2024-05-07 15:50;-37;-626.6
2024-05-07 16:00;-52;-879.1
2024-05-07 16:10;-66;-1121.3
2024-05-07 16:20;-77;-1327.4
2024-05-07 16:30;-86;-1477.8
2024-05-07 16:40;-91;-1571.3
2024-05-07 16:50;-94;-1615.6
2024-05-07 17:00;-95;-1620.9
2024-05-07 17:10;-94;-1597.8
2024-05-07 17:20;-92;-1558.9
2024-05-07 17:30;-89;-1513.8
2024-05-07 17:40;-87;-1467.8
2024-05-07 17:50;-84;-1422.8
2024-05-07 18:00;-82;-1375.9
2024-05-07 18:10;-79;-1321.8
2024-05-07 18:20;-75;-1255.2
2024-05-07 18:30;-70;-1172.5
2024-05-07 18:40;-64;-1072
2024-05-07 18:50;-57;-952.9
2024-05-07 19:00;-49;-817.1
2024-05-07 19:10;-40;-653.8
2024-05-07 19:20;-28;-461.4
2024-05-07 19:30;-16;-262.9
2024-05-07 19:40;-5;-80.6
2024-05-07 19:50;5;82.8
2024-05-07 20:00;14;223.9
2024-05-07 20:10;22;353.4
2024-05-07 20:20;29;469.2
2024-05-07 20:30;36;586.2
2024-05-07 20:40;44;710.9
2024-05-07 20:50;52;836.7
2024-05-07 21:00;59;949.2
2024-05-07 21:10;66;1048.9
2024-05-07 21:20;71;1130.9
2024-05-07 21:30;75;1194.6
2024-05-07 21:40;78;1241.4
2024-05-07 21:50;81;1273.4
2024-05-07 22:00;82;1291.6
2024-05-07 22:10;82;1296.2
2024-05-07 22:20;82;1291.7
2024-05-07 22:30;81;1281.8
2024-05-07 22:40;80;1270.4
2024-05-07 22:50;79;1260.6
2024-05-07 23:00;79;1254
2024-05-07 23:10;79;1250.5
2024-05-07 23:20;79;1249.3
2024-05-07 23:30;79;1247.9
2024-05-07 23:40;79;1245.3
2024-05-07 23:50;79;1240.5
2024-05-08 00:00;78;1233.7
2024-05-08 00:10;78;1225.1
2024-05-08 00:20;77;1215.6
2024-05-08 00:30;77;1206.4
2024-05-08 00:40;76;1198.3
2024-05-08 00:50;76;1191.9
2024-05-08 01:00;76;1187.1
2024-05-08 01:10;76;1186.2
2024-05-08 01:20;76;1189.6
2024-05-08 01:30;76;1189.8
2024-05-08 01:40;76;1182.1
2024-05-08 01:50;75;1168.4
2024-05-08 02:00;74;1149.4
2024-05-08 02:10;72;1125.2
2024-05-08 02:20;70;1095.5
2024-05-08 02:30;68;1060.4
2024-05-08 02:40;65;1019.7
2024-05-08 02:50;62;972.1
2024-05-08 03:00;58;915
2024-05-08 03:10;53;839.7
2024-05-08 03:20;46;733.7
2024-05-08 03:30;36;583.7
2024-05-08 03:40;23;382.6
2024-05-08 03:50;9;149.6
2024-05-08 04:00;-5;-83
2024-05-08 04:10;-18;-301.9
2024-05-08 04:20;-31;-527.3
2024-05-08 04:30;-44;-753.3
2024-05-08 04:40;-57;-971.1
2024-05-08 04:50;-68;-1165
2024-05-08 05:00;-77;-1315.1
2024-05-08 05:10;-83;-1416
2024-05-08 05:20;-86;-1470.9
2024-05-08 05:30;-87;-1488
2024-05-08 05:40;-87;-1474.7
2024-05-08 05:50;-85;-1440.5
2024-05-08 06:00;-83;-1392.9
2024-05-08 06:10;-79;-1333.9
2024-05-08 06:20;-75;-1264.8
2024-05-08 06:30;-71;-1184.9
2024-05-08 06:40;-65;-1089.3
2024-05-08 06:50;-59;-974
2024-05-08 07:00;-51;-840.9
2024-05-08 07:10;-42;-692.2
2024-05-08 07:20;-32;-514.8
2024-05-08 07:30;-19;-310.9
2024-05-08 07:40;-7;-111.1
2024-05-08 07:50;4;71
2024-05-08 08:00;14;229.8
2024-05-08 08:10;23;366.5
2024-05-08 08:20;30;487.4
2024-05-08 08:30;38;603.5
2024-05-08 08:40;46;726.8
2024-05-08 08:50;54;861.1
2024-05-08 09:00;63;996.1
2024-05-08 09:10;71;1117.1
2024-05-08 09:20;77;1218.5
2024-05-08 09:30;83;1301
2024-05-08 09:40;88;1367.7
2024-05-08 09:50;91;1421.7
2024-05-08 10:00;94;1463.5
2024-05-08 10:10;96;1494
2024-05-08 10:20;98;1513.9
2024-05-08 10:30;99;1523.8
2024-05-08 10:40;99;1524.3
2024-05-08 10:50;98;1515.5
2024-05-08 11:00;97;1499.3
2024-05-08 11:10;96;1478.9
2024-05-08 11:20;94;1458.1
2024-05-08 11:30;93;1440.2
2024-05-08 11:40;92;1427
2024-05-08 11:50;91;1417.9
2024-05-08 12:00;91;1411.3
2024-05-08 12:10;91;1406.3
2024-05-08 12:20;91;1401.7
2024-05-08 12:30;90;1396.3
2024-05-08 12:40;90;1389.4
2024-05-08 12:50;90;1380.9
2024-05-08 13:00;89;1371.3
2024-05-08 13:10;89;1361.6
2024-05-08 13:20;88;1352.6
2024-05-08 13:30;88;1344.7
2024-05-08 13:40;87;1338
2024-05-08 13:50;87;1332.2
2024-05-08 14:00;87;1326.5
2024-05-08 14:10;87;1319.8
2024-05-08 14:20;86;1310.4
2024-05-08 14:30;85;1296.9
2024-05-08 14:40;84;1277.3
2024-05-08 14:50;82;1249.3
2024-05-08 15:00;79;1211.6
2024-05-08 15:10;76;1158.1
2024-05-08 15:20;70;1084.5
2024-05-08 15:30;63;975.5
2024-05-08 15:40;52;817.3
2024-05-08 15:50;38;609.9
2024-05-08 16:00;22;364.2
2024-05-08 16:10;8;126.8
2024-05-08 16:20;-6;-102.2
2024-05-08 16:30;-20;-327.4
2024-05-08 16:40;-34;-564.1
2024-05-08 16:50;-48;-802.6
2024-05-08 17:00;-61;-1034.6
2024-05-08 17:10;-72;-1236.7
2024-05-08 17:20;-81;-1387.2
2024-05-08 17:30;-87;-1481.1
2024-05-08 17:40;-89;-1523.5
2024-05-08 17:50;-90;-1525
2024-05-08 18:00;-88;-1495.7
2024-05-08 18:10;-86;-1446.3
2024-05-08 18:20;-83;-1391.7
2024-05-08 18:30;-80;-1334.3
2024-05-08 18:40;-77;-1277.3
2024-05-08 18:50;-73;-1220.3
2024-05-08 19:00;-70;-1157.5
2024-05-08 19:10;-65;-1078
2024-05-08 19:20;-59;-978.9
2024-05-08 19:30;-52;-860.1
2024-05-08 19:40;-44;-727.7
2024-05-08 19:50;-35;-567.7
2024-05-08 20:00;-23;-376.4
2024-05-08 20:10;-11;-182.2
2024-05-08 20:20;0;-4.2
2024-05-08 20:30;9;153.4
2024-05-08 20:40;18;288
2024-05-08 20:50;25;402.7
2024-05-08 21:00;32;507.5
2024-05-08 21:10;39;614.3
2024-05-08 21:20;46;731.6
2024-05-08 21:30;54;857.3
2024-05-08 21:40;62;978.8
2024-05-08 21:50;69;1084.8
2024-05-08 22:00;75;1171.8
2024-05-08 22:10;79;1240.8
2024-05-08 22:20;83;1293.4
2024-05-08 22:30;85;1331.7
2024-05-08 22:40;87;1355.5
2024-05-08 22:50;88;1364.8
2024-05-08 23:00;87;1359.7
2024-05-08 23:10;86;1344.8
2024-05-08 23:20;85;1324.5
2024-05-08 23:30;83;1304.3
2024-05-08 23:40;82;1287.9
2024-05-08 23:50;81;1278.4
2024-05-09 00:00;81;1275.1
2024-05-09 00:10;81;1274.6
2024-05-09 00:20;81;1274.4
2024-05-09 00:30;81;1272.3
2024-05-09 00:40;81;1267.8
2024-05-09 00:50;81;1259.2
2024-05-09 01:00;80;1246.7
2024-05-09 01:10;79;1231.9
2024-05-09 01:20;78;1217.2
2024-05-09 01:30;77;1204.7
2024-05-09 01:40;77;1196
2024-05-09 01:50;77;1191.4
2024-05-09 02:00;77;1189.7
2024-05-09 02:10;77;1188.8
2024-05-09 02:20;77;1186.1
2024-05-09 02:30;76;1179.2
2024-05-09 02:40;75;1165.8
2024-05-09 02:50;74;1144
2024-05-09 03:00;72;1112.9
2024-05-09 03:10;69;1071.8
2024-05-09 03:20;65;1019.6
2024-05-09 03:30;61;955.6
2024-05-09 03:40;55;871.8
2024-05-09 03:50;48;762.2
2024-05-09 04:00;39;620.9
2024-05-09 04:10;27;441.1
2024-05-09 04:20;14;229.2
2024-05-09 04:30;0;7.8
2024-05-09 04:40;-13;-213.2
2024-05-09 04:50;-27;-438.4
2024-05-09 05:00;-40;-671.7
2024-05-09 05:10;-54;-907.4
2024-05-09 05:20;-66;-1127.5
2024-05-09 05:30;-77;-1310.3
2024-05-09 05:40;-84;-1443.2
2024-05-09 05:50;-89;-1525.7
2024-05-09 06:00;-91;-1563.5
2024-05-09 06:10;-92;-1565
2024-05-09 06:20;-90;-1538.2
2024-05-09 06:30;-88;-1492.7
2024-05-09 06:40;-85;-1436.6
2024-05-09 06:50;-82;-1375.5
2024-05-09 07:00;-78;-1311.7
2024-05-09 07:10;-74;-1245.2
2024-05-09 07:20;-70;-1171.1
2024-05-09 07:30;-65;-1083.5
2024-05-09 07:40;-59;-977.7
2024-05-09 07:50;-52;-854.5
2024-05-09 08:00;-43;-710
2024-05-09 08:10;-33;-529.8
2024-05-09 08:20;-20;-319.2
2024-05-09 08:30;-7;-114.2
2024-05-09 08:40;4;71.3
2024-05-09 08:50;14;230.3
2024-05-09 09:00;23;364.3
2024-05-09 09:10;30;481
2024-05-09 09:20;37;592.5
2024-05-09 09:30;45;712
2024-05-09 09:40;53;844.6
2024-05-09 09:50;62;980.6
2024-05-09 10:00;70;1103.9
2024-05-09 10:10;77;1207.3
2024-05-09 10:20;82;1291.3
2024-05-09 10:30;87;1358.8
2024-05-09 10:40;91;1413
2024-05-09 10:50;94;1454.7
2024-05-09 11:00;96;1484.3
2024-05-09 11:10;97;1502.4
2024-05-09 11:20;98;1509.1
2024-05-09 11:30;98;1505.2
2024-05-09 11:40;97;1491.6
2024-05-09 11:50;95;1472
2024-05-09 12:00;94;1451.3
2024-05-09 12:10;92;1434.3
2024-05-09 12:20;92;1423.5
2024-05-09 12:30;91;1418.6
2024-05-09 12:40;91;1417.1
2024-05-09 12:50;91;1417
2024-05-09 13:00;92;1416.3
2024-05-09 13:10;92;1413.4
2024-05-09 13:20;91;1407.3
2024-05-09 13:30;91;1398
2024-05-09 13:40;90;1386.3
2024-05-09 13:50;89;1373.9
2024-05-09 14:00;89;1362.4
2024-05-09 14:10;88;1353.3
2024-05-09 14:20;88;1347
2024-05-09 14:30;88;1343.2
2024-05-09 14:40;88;1340.7
2024-05-09 14:50;88;1337.5
2024-05-09 15:00;87;1330.6
2024-05-09 15:10;86;1317.4
2024-05-09 15:20;85;1295.6
2024-05-09 15:30;83;1262.7
2024-05-09 15:40;79;1216.2
2024-05-09 15:50;75;1154.3
2024-05-09 16:00;69;1067.5
2024-05-09 16:10;61;948
2024-05-09 16:20;50;792.1
2024-05-09 16:30;37;598.5
2024-05-09 16:40;23;374.7
2024-05-09 16:50;9;150.8
2024-05-09 17:00;-5;-77.1
2024-05-09 17:10;-18;-303.7
2024-05-09 17:20;-33;-544.5
2024-05-09 17:30;-47;-792.1
2024-05-09 17:40;-61;-1035.4
2024-05-09 17:50;-73;-1248.4
2024-05-09 18:00;-82;-1407.7
2024-05-09 18:10;-88;-1507.6
2024-05-09 18:20;-91;-1554.4
2024-05-09 18:30;-91;-1557
2024-05-09 18:40;-90;-1524.8
2024-05-09 18:50;-87;-1472.2
2024-05-09 19:00;-84;-1411.8
2024-05-09 19:10;-81;-1352
2024-05-09 19:20;-78;-1297.1
2024-05-09 19:30;-75;-1245.8
2024-05-09 19:40;-71;-1191.4
2024-05-09 19:50;-68;-1126.7
2024-05-09 20:00;-63;-1045.2
2024-05-09 20:10;-57;-942
2024-05-09 20:20;-50;-818.7
2024-05-09 20:30;-41;-669.9
2024-05-09 20:40;-30;-483.7
2024-05-09 20:50;-17;-279.5
2024-05-09 21:00;-6;-87.8
2024-05-09 21:10;5;82.5
2024-05-09 21:20;14;226.7
2024-05-09 21:30;21;347.2
2024-05-09 21:40;28;451.6
2024-05-09 21:50;34;552.3
2024-05-09 22:00;41;661.1
2024-05-09 22:10;49;782.2
2024-05-09 22:20;57;907.1
2024-05-09 22:30;64;1021.3
2024-05-09 22:40;71;1117.6
2024-05-09 22:50;76;1195
2024-05-09 23:00;80;1254.7
2024-05-09 23:10;83;1298.4
2024-05-09 23:20;85;1327.3
2024-05-09 23:30;85;1341.1
2024-05-09 23:40;85;1339.8
2024-05-09 23:50;84;1327.8
2024-05-10 00:00;83;1309.9
2024-05-10 00:10;82;1291.8
2024-05-10 00:20;81;1277.8
2024-05-10 00:30;80;1271.1
2024-05-10 00:40;80;1271.3
2024-05-10 00:50;81;1274.4
2024-05-10 01:00;81;1277.3
2024-05-10 01:10;81;1278.6
2024-05-10 01:20;81;1276.1
2024-05-10 01:30;81;1268.8
2024-05-10 01:40;80;1256.6
2024-05-10 01:50;79;1240.4
2024-05-10 02:00;78;1222.9
2024-05-10 02:10;77;1206.7
2024-05-10 02:20;76;1194.1
2024-05-10 02:30;76;1186.1
2024-05-10 02:40;75;1182.1
2024-05-10 02:50;75;1180.1
2024-05-10 03:00;75;1176.8
2024-05-10 03:10;75;1168.6
2024-05-10 03:20;74;1152.1
2024-05-10 03:30;72;1124.5
2024-05-10 03:40;69;1084.1
2024-05-10 03:50;66;1029.3
2024-05-10 04:00;61;959.2
2024-05-10 04:10;55;871.1
2024-05-10 04:20;48;765
2024-05-10 04:30;39;634.3
2024-05-10 04:40;29;478
2024-05-10 04:50;17;287.9
2024-05-10 05:00;4;69
2024-05-10 05:10;-10;-164.7
2024-05-10 05:20;-24;-405.3
2024-05-10 05:30;-39;-652.5
2024-05-10 05:40;-53;-903.5
2024-05-10 05:50;-67;-1141.7
2024-05-10 06:00;-78;-1349.7
2024-05-10 06:10;-87;-1512.8
2024-05-10 06:20;-94;-1624.4
2024-05-10 06:30;-97;-1688
2024-05-10 06:40;-99;-1710.9
2024-05-10 06:50;-98;-1700.8
2024-05-10 07:00;-96;-1666.2
2024-05-10 07:10;-94;-1617.9
2024-05-10 07:20;-91;-1565.2
2024-05-10 07:30;-89;-1517.2
2024-05-10 07:40;-86;-1472.3
2024-05-10 07:50;-84;-1425.4
2024-05-10 08:00;-80;-1367.6
2024-05-10 08:10;-76;-1289.6
2024-05-10 08:20;-70;-1184.7
2024-05-10 08:30;-62;-1053.5
2024-05-10 08:40;-53;-895.6
2024-05-10 08:50;-42;-705.5
2024-05-10 09:00;-29;-482.6
2024-05-10 09:10;-16;-254.8
2024-05-10 09:20;-3;-49.8
2024-05-10 09:30;8;127.5
2024-05-10 09:40;17;276.9
2024-05-10 09:50;25;400.6
2024-05-10 10:00;31;510.6
2024-05-10 10:10;38;620.2
2024-05-10 10:20;46;740.7
2024-05-10 10:30;55;874.5
2024-05-10 10:40;63;1010.7
2024-05-10 10:50;71;1134.2
2024-05-10 11:00;78;1237.4
2024-05-10 11:10;83;1320.6
2024-05-10 11:20;88;1386.5
2024-05-10 11:30;91;1437.6
2024-05-10 11:40;94;1476.1
2024-05-10 11:50;96;1502.9
2024-05-10 12:00;97;1518
2024-05-10 12:10;97;1522.3
2024-05-10 12:20;97;1517.4
2024-05-10 12:30;96;1505.5
2024-05-10 12:40;95;1489.9
2024-05-10 12:50;94;1475.2
2024-05-10 13:00;93;1464.4
2024-05-10 13:10;93;1458.2
2024-05-10 13:20;93;1454.8
2024-05-10 13:30;93;1452.9
2024-05-10 13:40;93;1450.7
2024-05-10 13:50;93;1446.9
2024-05-10 14:00;92;1440.3
2024-05-10 14:10;92;1430.8
2024-05-10 14:20;91;1419.1
2024-05-10 14:30;90;1406.7
2024-05-10 14:40;90;1394.9
2024-05-10 14:50;89;1385.2
2024-05-10 15:00;89;1378
2024-05-10 15:10;89;1373.6
2024-05-10 15:20;89;1371.1
2024-05-10 15:30;88;1368.8
2024-05-10 15:40;88;1364.5
2024-05-10 15:50;88;1355.8
2024-05-10 16:00;87;1339.7
2024-05-10 16:10;85;1314.4
2024-05-10 16:20;83;1278.2
2024-05-10 16:30;79;1229
2024-05-10 16:40;75;1165.6
2024-05-10 16:50;69;1079.3
2024-05-10 17:00;61;961.6
2024-05-10 17:10;50;803.4
2024-05-10 17:20;37;607.5
2024-05-10 17:30;23;374.7
2024-05-10 17:40;8;138.5
2024-05-10 17:50;-6;-94.2
2024-05-10 18:00;-19;-317.5
2024-05-10 18:10;-32;-547.8
2024-05-10 18:20;-46;-779.9
2024-05-10 18:30;-58;-1002.5
2024-05-10 18:40;-69;-1191.2
2024-05-10 18:50;-77;-1328.1
2024-05-10 19:00;-82;-1410.1
2024-05-10 19:10;-84;-1444.6
2024-05-10 19:20;-84;-1441.6
2024-05-10 19:30;-83;-1409.5
2024-05-10 19:40;-80;-1358.2
2024-05-10 19:50;-77;-1299
2024-05-10 20:00;-73;-1234.4
2024-05-10 20:10;-69;-1163.3
2024-05-10 20:20;-65;-1082.8
2024-05-10 20:30;-59;-988.2
2024-05-10 20:40;-53;-875.1
2024-05-10 20:50;-45;-744.2
2024-05-10 21:00;-36;-593.8
2024-05-10 21:10;-25;-411.6
2024-05-10 21:20;-13;-209.7
2024-05-10 21:30;-1;-16.6
2024-05-10 21:40;9;155.8
2024-05-10 21:50;18;301.6
2024-05-10 22:00;26;420
2024-05-10 22:10;32;519.2
2024-05-10 22:20;38;612.3
2024-05-10 22:30;45;713.4
2024-05-10 22:40;52;828.9
2024-05-10 22:50;60;953.6
2024-05-10 23:00;68;1073.2
2024-05-10 23:10;74;1177.2
2024-05-10 23:20;80;1263.3
2024-05-10 23:30;85;1332.9
2024-05-10 23:40;88;1387.9
2024-05-10 23:50;91;1429.9
2024-05-11 00:00;93;1459.8
2024-05-11 00:10;95;1477.7
2024-05-11 00:20;95;1483.9
2024-05-11 00:30;95;1479.1
2024-05-11 00:40;94;1465.7
2024-05-11 00:50;93;1448.3
2024-05-11 01:00;91;1430.8
2024-05-11 01:10;90;1418.5
2024-05-11 01:20;90;1413.2
2024-05-11 01:30;90;1413.3
2024-05-11 01:40;90;1415.6
2024-05-11 01:50;91;1417.5
2024-05-11 02:00;91;1416.8
2024-05-11 02:10;91;1412
2024-05-11 02:20;90;1402.4
2024-05-11 02:30;89;1388.5
2024-05-11 02:40;88;1371.9
2024-05-11 02:50;87;1354.9
2024-05-11 03:00;86;1340
2024-05-11 03:10;86;1328.9
2024-05-11 03:20;85;1322.1
2024-05-11 03:30;85;1318.6
2024-05-11 03:40;85;1316
2024-05-11 03:50;85;1311
2024-05-11 04:00;84;1300
2024-05-11 04:10;83;1279.5
2024-05-11 04:20;81;1247
2024-05-11 04:30;77;1200.1
2024-05-11 04:40;73;1135.8
2024-05-11 04:50;67;1052.5
2024-05-11 05:00;59;940.7
2024-05-11 05:10;50;802.4
2024-05-11 05:20;39;634.3
2024-05-11 05:30;27;440
2024-05-11 05:40;14;239.7
2024-05-11 05:50;2;30.6
2024-05-11 06:00;-11;-186.2
2024-05-11 06:10;-25;-413.2
2024-05-11 06:20;-39;-658.3
2024-05-11 06:30;-53;-909
2024-05-11 06:40;-67;-1141.1
2024-05-11 06:50;-77;-1330.1
2024-05-11 07:00;-85;-1462.8
2024-05-11 07:10;-89;-1540.5
2024-05-11 07:20;-91;-1571.7
2024-05-11 07:30;-91;-1566.2
2024-05-11 07:40;-89;-1533.1
2024-05-11 07:50;-87;-1482.8
2024-05-11 08:00;-84;-1425
2024-05-11 08:10;-80;-1366.8
2024-05-11 08:20;-77;-1312.2
2024-05-11 08:30;-74;-1256.6
2024-05-11 08:40;-71;-1195.7
2024-05-11 08:50;-67;-1123.4
2024-05-11 09:00;-62;-1036
2024-05-11 09:10;-55;-930.8
2024-05-11 09:20;-48;-808
2024-05-11 09:30;-40;-665
2024-05-11 09:40;-29;-482.9
2024-05-11 09:50;-17;-277.7
2024-05-11 10:00;-5;-83.6
2024-05-11 10:10;5;88.1
2024-05-11 10:20;14;233.3
2024-05-11 10:30;22;353.4
2024-05-11 10:40;28;457